Regional Weather Roundup
Issued by NWS

Home | Current Version | Previous Version | Graphics & Text | Print | Product List | Glossary On
Versions: 1 2 3 4 5 6 7 8 9 10 11 12 13 14 15 16 17 18 19 20 21 22 23 24 25 26 27 28 29 30 31 32 33 34 35 36 37 38 39 40 41 42 43 44 45 46 47 48 49 50
421
ASUS43 KMKX 091900
RWRWI

WISCONSIN REGIONAL WEATHER ROUNDUP
NATIONAL WEATHER SERVICE MILWAUKEE/SULLIVAN WI
100 PM CST FRI DEC 09 2016

NOTE: "FAIR" INDICATES FEW OR NO CLOUDS BELOW 12,000 FEET WITH NO
SIGNIFICANT WEATHER AND/OR OBSTRUCTIONS TO VISIBILITY.

WIZ001-002-006>008-014>016-023>028-092000-
NORTHWEST WISCONSIN

CITY           SKY/WX    TMP DP  RH WIND       PRES   REMARKS
SUPERIOR ARPT  CLOUDY    14   3  61 NW10      30.51F WCI   2
ASHLAND        CLOUDY    16   6  65 W12       30.46F WCI   3
HAYWARD        CLOUDY    16   5  62 VRB6      30.44F WCI   7
SIREN          LGT SNOW  16  10  78 NW5       30.48F WCI   9
CUMBERLAND     CLOUDY    18   9  68 W9        30.45F WCI   6
RICE LAKE      LGT SNOW  18  12  77 SW6       30.48F WCI  10
CHETEK         FLURRIES  17  11  75 SW5       30.48F WCI  10
LADYSMITH      CLOUDY    19  10  68 SW5       30.46F WCI  12
EAU CLAIRE     LGT SNOW  18  12  77 W8        30.49F WCI   8
MENOMONIE      LGT SNOW  19  13  75 W7        30.51F WCI  10
NEW RICHMOND   LGT SNOW  17  10  74 W9        30.50F WCI   6
OSCEOLA        LGT SNOW  18  12  77 SW9       30.53F WCI   7
$$

WIZ003>005-009-010-017-018-092000-
NORTH CENTRAL WISCONSIN

CITY           SKY/WX    TMP DP  RH WIND       PRES   REMARKS
MANITOWISH WTR FLURRIES  13   6  74 W12G17    30.37F WCI  -1
ARBOR VITAE    FLURRIES  17   9  71 W5        30.37F WCI  10
WOODRUFF       FLURRIES  17   9  71 W5        30.37F WCI  10
RHINELANDER    CLOUDY    17   8  67 W12       30.37F WCI   4
EAGLE RIVER    CLOUDY    17   7  65 W10G17    30.34F WCI   4
LAND O LAKES   CLOUDY    19   9  67 W9        30.36F WCI   7
PHILLIPS       CLOUDY    15   7  69 NW7       30.40F WCI   5
TOMAHAWK       CLOUDY    17   8  67 W7        30.40F WCI   7
MEDFORD        CLOUDY    16   7  68 W7        30.42S WCI   6
MERRILL        CLOUDY    19   7  60 NW12G21   30.42F WCI   6
$$

WIZ029-030-035-036-043>047-092000-
CENTRAL WISCONSIN

CITY           SKY/WX    TMP DP  RH WIND       PRES   REMARKS
WAUSAU         CLOUDY    18   8  65 W15       30.42S WCI   4
MOSINEE        PTSUNNY   18   9  68 NW14      30.44S WCI   4
MARSHFIELD     CLOUDY    17   8  67 NW9       30.43F WCI   6
STEVENS POINT  MOSUNNY   18   7  61 W9G16     30.45S WCI   7
WAUPACA        SUNNY     26  10  51 W10       30.45F WCI  16
WAUTOMA        SUNNY     22  11  62 W15       30.47F WCI   9
WISC RAPIDS    CLOUDY    20   9  62 NW9       30.47F WCI   9
CAMP DOUGLAS   NOT AVBL
$$

WIZ011>013-019>022-031-037>040-048>050-092000-
NORTHEAST WISCONSIN

CITY           SKY/WX    TMP DP  RH WIND       PRES   REMARKS
ANTIGO         CLOUDY    18   9  66 W9        30.38F WCI   7
SHAWANO        SUNNY     27   8  45 NW10      30.42F WCI  17
OCONTO         CLOUDY    26  12  57 W8        30.40F WCI  17
STURGEON BAY   CLOUDY    26  11  52 W12       30.38F WCI  16
GREEN BAY      SUNNY     27  11  51 NW13      30.41F WCI  16
MANITOWOC      NOT AVBL
APPLETON       MOSUNNY   25   7  46 W15       30.41F WCI  12
CLINTONVILLE   SUNNY     27   9  46 W12G17    30.43S WCI  16
OSHKOSH        MOSUNNY   23  10  57 W14       30.43F WCI  11
$$

WIZ032>034-041-042-053>061-092000-
SOUTHWEST WISCONSIN

CITY           SKY/WX    TMP DP  RH WIND       PRES   REMARKS
LA CROSSE      MOSUNNY   25  10  53 W7        30.52F WCI  17
SPARTA         MOSUNNY   22  11  62 SW5       30.51F WCI  16
VIROQUA        MOSUNNY   20  12  72 W8        30.47F WCI  10
BOSCOBEL       SUNNY     25  12  58 W8        30.52F WCI  16
PRAIRIE DU CHI MOSUNNY   22  10  60 W5        30.54F WCI  16
PLATTEVILLE    SUNNY     21  14  74 W7        30.52F WCI  13
$$

WIZ056-057-062-063-064-067-068-092000-
SOUTH CENTRAL WISCONSIN

CITY           SKY/WX    TMP DP  RH WIND       PRES   REMARKS
REEDSBURG      SUNNY     23  11  60 W12       30.49F WCI  11
BARABOO/DELLS  SUNNY     23  11  60 W9        30.48F WCI  13
LONE ROCK      MOSUNNY   24  12  60 W9        30.52F WCI  14
MINERAL POINT  MOSUNNY   23  14  68 W6        30.48F WCI  16
MADISON        MOSUNNY   23  11  60 NW8       30.48F WCI  14
MIDDLETON      SUNNY     26  14  61 NW8       30.49F WCI  17
WATERTOWN      SUNNY     23  13  64 W8        30.47F WCI  14
MONROE         MOSUNNY   23  14  68 W9        30.48F WCI  13
JANESVILLE     MOSUNNY   25  12  58 W7        30.49F WCI  17
$$

WIZ051-052-058>065-066-070>072-092000-
SOUTHEAST WISCONSIN

CITY           SKY/WX    TMP DP  RH WIND       PRES   REMARKS
MILWAUKEE      MOSUNNY   27   9  46 NW15G21   30.46F WCI  15
WAUKESHA       MOSUNNY   25  10  54 W14       30.47S WCI  13
MILWAUKEE/TIMM MOSUNNY   27   9  46 W15G22    30.47F WCI  15
RACINE         CLOUDY    27  10  49 W14G21    30.48F WCI  16
BURLINGTON     MOSUNNY   30  17  60 NW8G17    30.47F WCI  22
KENOSHA        PTSUNNY   26  12  55 NW12      30.47F WCI  16
FOND DU LAC    SUNNY     24  10  55 W15       30.45F WCI  11
SHEBOYGAN      MOSUNNY   25  10  53 W15       30.43F WCI  13
WEST BEND      PTSUNNY   23  10  58 W13G20    30.44F WCI  11
JUNEAU         SUNNY     21  11  64 W8        30.47F WCI  12
$$

LSZ147-162-092000-
LAKE SUPERIOR

STATION/POSITION TIME  TEMP    WIND        PRES    WAVE
                       AIR SEA DIR/SP/G            HT/PER
                 (UTC) (F)     (DEG/KT/KT) (MB)    (FT/S)
DEVILS ISLAND    1800   17     280/ 11/ 15 1032.7F
PORT WING        1830   17     270/ 12/ 19 1032.2S
SAXON HARBOR     1840   17     240/  5/  7 1031.2F
$$

LMZ867-665-643>646-092000-
LAKE MICHIGAN

STATION/POSITION TIME  TEMP    WIND        PRES    WAVE
                       AIR SEA DIR/SP/G            HT/PER
                 (UTC) (F)     (DEG/KT/KT) (MB)    (FT/S)
CHAMBERS ISLAND  1840   27     300/  9/ 16 1028.1F
NORTHPORT PIER   1840   26     300/ 11/ 17 1028.1F
SISTER BAY       1820   26     330/ 17/ 19   N/A
ALGOMA LAKESHORE 1851          330/ 13/ 15   N/A
KEWAUNEE LAKESHO 1830   24     320/  7/ 12 1029.0F
SHEBOYGAN LAKESH 1800   23     300/ 16/ 19 1031.7F
PORT WASHINGTON  1840   25     280/ 13/ 18 1031.8F
MILWAUKEE LAKESH 1830   24     300/ 11/ 14   N/A
KENOSHA   LAKESH 1800   24     260/ 14/ 16 1032.2
$$

TC  - TEMPERATURE IN CELSIUS
VSB - VISIBILITY IN STATUTE MILES
WCI - WIND CHILL INDEX
HX  - HEAT INDEX





USA.gov is the U.S. government's official web portal to all federal, state and local government web resources and services.